Location: Kearney
(40.6990°N, 99.0810°W)
Time: 04:34:43
(UTC-05:00)

NOSS 8 (A) - Pass Details

Date: 18 December 2017
Orbit: 411 x 1748 km, 63.3° (Epoch: 16 April)

Event Time Altitude Azimuth Distance (km) Brightness Sun altitude
Rises 17:36:34 0° 212° (SSW) 2,473 9.3 -5.1°
Reaches altitude 10° 17:38:43 10° 212° (SSW) 1,528 8.1 -5.5°
Maximum altitude 17:41:58 85° 122° (ESE) 419 4.2 -6.0°
Drops below altitude 10° 17:45:10 10° 36° (NE) 1,509 6.5 -6.6°
Enters shadow 17:45:58 - 35° (NE) 1,857 7.0 -6.7°
